Voltar ao catálogo

KUIPER-00623

AtivoComunicaçõesLEO
NORAD 69780·PAYLOAD·🇺🇸 United States

Lançado Jul 2, 2026 de Cape Canaveral Space Force Station

Loading…

Próximas Passagens (próximas 24 horas)

TLE

AtualizadoSource: CelesTrak SupGP

Época: Sep 14, 2026, 21:31 UTC

1 69780C 26151T   26257.89655093  .00002236  00000+0  29187-3 0  2571
2 69780  51.8964 256.4864 0001776 100.3097 238.5961 14.80042292    18

Acompanhe KUIPER-00623 em tempo real com AllMySat

Download on the App Store